,,,PA_Meas_PMT16A,,PR_Meas_QMR101_102,,RH_Meas_QMH101,,SR_Meas_QMS101,,TA_Meas_QMH101,,GenWind,,GenWind,
date,time,status,PA,status,PR,status,RH,status,SR,status,TA,status,DirAvg,status,SpdAvg,
2011-10-09, 00:00:04,VALID,1001.47,VALID,0,VALID,88.969,VALID,0,VALID,22.9581,VALID,45,VALID,0.528516,
2011-10-09, 00:01:04,VALID,1001.46,VALID,0,VALID,89.0224,VALID,0.104696,VALID,22.919,VALID,45,VALID,0.524219,
2011-10-09, 00:02:04,VALID,1001.42,VALID,0,VALID,89.114,VALID,0,VALID,22.8995,VALID,45,VALID,0.654688,
2011-10-09, 00:03:04,VALID,1001.43,VALID,0,VALID,89.0987,VALID,0,VALID,22.8995,VALID,45,VALID,0.79375,
2011-10-09, 00:04:04,VALID,1001.43,VALID,0,VALID,88.9614,VALID,0,VALID,22.8995,VALID,45,VALID,0.670703,
2011-10-09, 00:05:04,VALID,1001.38,VALID,0,VALID,88.9156,VALID,0,VALID,22.919,VALID,45,VALID,0.726953,
2011-10-09, 00:06:04,VALID,1001.37,VALID,0,VALID,88.6867,VALID,0,VALID,22.919,VALID,45,VALID,0.842969,
2011-10-09, 00:07:04,VALID,1001.34,VALID,0,VALID,88.4273,VALID,0,VALID,22.9208,VALID,56,VALID,0.891406,
2011-10-09, 00:08:04,VALID,1001.31,VALID,0,VALID,88.1679,VALID,0,VALID,22.9598,VALID,56,VALID,0.963672,
2011-10-09, 00:09:04,VALID,1001.32,VALID,0,VALID,87.7101,VALID,0,VALID,22.9793,VALID,79,VALID,0.658984,
2011-10-09, 00:10:04,VALID,1001.3,VALID,0,VALID,87.5651,VALID,0,VALID,22.9811,VALID,79,VALID,0.648047,
2011-10-09, 00:11:04,VALID,1001.27,VALID,0,VALID,87.3897,VALID,0,VALID,22.9793,VALID,79,VALID,0.438672,
2011-10-09, 00:12:04,VALID,1001.28,VALID,0,VALID,87.2905,VALID,0,VALID,22.9598,VALID,79,VALID,0.208203,
2011-10-09, 00:13:04,VALID,1001.25,VALID,0,VALID,87.2905,VALID,0,VALID,22.9208,VALID,79,VALID,0.090625,
2011-10-09, 00:14:04,VALID,1001.23,VALID,0,VALID,87.4354,VALID,0,VALID,22.9208,VALID,79,VALID,0,
2011-10-09, 00:15:04,VALID,1001.21,VALID,0,VALID,87.588,VALID,0,VALID,22.9403,VALID,79,VALID,0,
2011-10-09, 00:16:04,VALID,1001.2,VALID,0,VALID,87.4889,VALID,0,VALID,22.9811,VALID,79,VALID,0,
2011-10-09, 00:17:04,VALID,1001.18,VALID,0,VALID,87.4354,VALID,0,VALID,22.9793,VALID,79,VALID,0,
2011-10-09, 00:18:04,VALID,1001.16,VALID,0,VALID,87.4583,VALID,0,VALID,22.9598,VALID,79,VALID,0,
2011-10-09, 00:19:04,VALID,1001.15,VALID,0,VALID,87.5575,VALID,0,VALID,22.9793,VALID,79,VALID,0.273047,
2011-10-09, 00:20:04,VALID,1001.12,VALID,0,VALID,87.3515,VALID,0,VALID,22.9988,VALID,79,VALID,0.0410156,
2011-10-09, 00:21:04,VALID,1001.11,VALID,0,VALID,87.3668,VALID,0,VALID,22.9793,VALID,79,VALID,0,
2011-10-09, 00:22:04,VALID,1001.11,VALID,0,VALID,87.1989,VALID,0,VALID,22.9793,VALID,79,VALID,0.472266,
2011-10-09, 00:23:04,VALID,1001.09,VALID,0,VALID,86.9472,VALID,0,VALID,23.0183,VALID,25,VALID,0.921875,
2011-10-09, 00:24:04,VALID,1001.09,VALID,0,VALID,87.382,VALID,0,VALID,23.0573,VALID,24,VALID,0.848828,
2011-10-09, 00:25:04,VALID,1001.09,VALID,0,VALID,87.4889,VALID,0,VALID,23.0769,VALID,24,VALID,0.823828,
2011-10-09, 00:26:04,VALID,1001.04,VALID,0,VALID,87.5423,VALID,0,VALID,23.0964,VALID,24,VALID,0.833203,
2011-10-09, 00:27:04,VALID,1001.04,VALID,0,VALID,87.4278,VALID,0,VALID,23.0981,VALID,24,VALID,0.573438,
2011-10-09, 00:28:04,VALID,1001.01,VALID,0,VALID,87.4889,VALID,0,VALID,23.0183,VALID,24,VALID,0.812109,
2011-10-09, 00:29:04,VALID,1001.04,VALID,0,VALID,87.8246,VALID,0,VALID,23.0378,VALID,24,VALID,0.692187,
2011-10-09, 00:30:04,VALID,1000.99,VALID,0,VALID,87.588,VALID,0,VALID,23.0573,VALID,24,VALID,0.720703,
2011-10-09, 00:31:04,VALID,1001.01,VALID,0,VALID,87.2371,VALID,0,VALID,23.0183,VALID,24,VALID,0.748438,
2011-10-09, 00:32:04,VALID,1001.02,VALID,0,VALID,87.382,VALID,0,VALID,23.0183,VALID,24,VALID,0.769922,
2011-10-09, 00:33:04,VALID,1001.03,VALID,0,VALID,87.0616,VALID,0,VALID,22.9615,VALID,24,VALID,0.558594,
2011-10-09, 00:34:04,VALID,1001.05,VALID,0,VALID,87.1913,VALID,0,VALID,22.9013,VALID,24,VALID,0.765234,
2011-10-09, 00:35:04,VALID,1001.07,VALID,0,VALID,87.5804,VALID,0,VALID,22.9013,VALID,24,VALID,0.561719,
2011-10-09, 00:36:04,VALID,1001.06,VALID,0,VALID,87.5957,VALID,0,VALID,22.8623,VALID,24,VALID,0.451172,
2011-10-09, 00:37:04,VALID,1001.06,VALID,0,VALID,87.8093,VALID,0,VALID,22.8037,VALID,24,VALID,0.280078,
2011-10-09, 00:38:04,VALID,1001.05,VALID,0,VALID,88.145,VALID,0,VALID,22.7647,VALID,24,VALID,0.0207031,
2011-10-09, 00:39:04,VALID,1001.02,VALID,0,VALID,88.412,VALID,0,VALID,22.7452,VALID,24,VALID,0,
2011-10-09, 00:40:04,VALID,1001,VALID,0,VALID,88.7096,VALID,0,VALID,22.7257,VALID,24,VALID,0,
2011-10-09, 00:41:04,VALID,1001.02,VALID,0,VALID,88.557,VALID,0,VALID,22.685,VALID,24,VALID,0.441797,
2011-10-09, 00:42:04,VALID,1001.01,VALID,0,VALID,88.8774,VALID,0,VALID,22.7062,VALID,24,VALID,0.214844,
2011-10-09, 00:43:04,VALID,1001.03,VALID,0,VALID,88.4883,VALID,0,VALID,22.6672,VALID,24,VALID,0.383984,
2011-10-09, 00:44:04,VALID,1001.06,VALID,0,VALID,88.8088,VALID,0,VALID,22.6477,VALID,24,VALID,0.386719,
2011-10-09, 00:45:04,VALID,1001.05,VALID,0,VALID,89.0834,VALID,0,VALID,22.646,VALID,24,VALID,0.498828,
2011-10-09, 00:46:04,VALID,1001.03,VALID,0,VALID,89.0529,VALID,0,VALID,22.6867,VALID,24,VALID,0.447656,
2011-10-09, 00:47:04,VALID,1001.04,VALID,0,VALID,88.8317,VALID,0,VALID,22.7062,VALID,24,VALID,0.480469,
2011-10-09, 00:48:04,VALID,1001.04,VALID,0,VALID,88.8393,VALID,0,VALID,22.7062,VALID,24,VALID,0.534375,
2011-10-09, 00:49:04,VALID,1001.02,VALID,0,VALID,88.908,VALID,0,VALID,22.7062,VALID,24,VALID,0.644141,
2011-10-09, 00:50:04,VALID,1001.03,VALID,0,VALID,88.9309,VALID,0,VALID,22.7062,VALID,24,VALID,0.405859,
2011-10-09, 00:51:04,VALID,1000.98,VALID,0,VALID,88.9461,VALID,0,VALID,22.6867,VALID,24,VALID,0.587109,
2011-10-09, 00:52:04,VALID,1000.99,VALID,0,VALID,89.0071,VALID,0,VALID,22.6672,VALID,24,VALID,0.551562,
2011-10-09, 00:53:04,VALID,1000.97,VALID,0,VALID,88.9537,VALID,0,VALID,22.6477,VALID,24,VALID,0.476172,
2011-10-09, 00:54:04,VALID,1000.97,VALID,0,VALID,88.9385,VALID,0,VALID,22.6689,VALID,24,VALID,0.558203,
2011-10-09, 00:55:04,VALID,1000.95,VALID,0,VALID,88.824,VALID,0,VALID,22.6087,VALID,24,VALID,0.486328,
2011-10-09, 00:56:04,VALID,1000.92,VALID,0,VALID,88.9385,VALID,0,VALID,22.5892,VALID,24,VALID,0.319141,
2011-10-09, 00:57:04,VALID,1000.93,VALID,0,VALID,88.9919,VALID,0,VALID,22.5696,VALID,24,VALID,0.329688,
2011-10-09, 00:58:04,VALID,1000.92,VALID,0,VALID,89.2513,VALID,0,VALID,22.5501,VALID,24,VALID,0.303516,
2011-10-09, 00:59:04,VALID,1000.93,VALID,0,VALID,89.4802,VALID,0,VALID,22.5696,VALID,24,VALID,0.458594,
2011-10-09, 01:00:04,VALID,1000.92,VALID,0,VALID,89.4802,VALID,0,VALID,22.5696,VALID,24,VALID,0.417969,
2011-10-09, 01:01:04,VALID,1000.92,VALID,0,VALID,89.2589,VALID,0,VALID,22.5892,VALID,24,VALID,0.484766,
2011-10-09, 01:02:04,VALID,1000.91,VALID,0,VALID,89.2742,VALID,0,VALID,22.5696,VALID,24,VALID,0.534375,
2011-10-09, 01:03:04,VALID,1000.89,VALID,0,VALID,89.2513,VALID,0,VALID,22.5696,VALID,24,VALID,0.632031,
2011-10-09, 01:04:04,VALID,1000.87,VALID,0,VALID,89.2589,VALID,0,VALID,22.5892,VALID,24,VALID,0.704297,
2011-10-09, 01:05:04,VALID,1000.82,VALID,0,VALID,89.1292,VALID,0,VALID,22.6087,VALID,24,VALID,0.651953,
2011-10-09, 01:06:04,VALID,1000.84,VALID,0,VALID,89.1063,VALID,0,VALID,22.6282,VALID,24,VALID,0.584766,
2011-10-09, 01:07:04,VALID,1000.83,VALID,0,VALID,88.7477,VALID,0,VALID,22.6087,VALID,24,VALID,0.558594,
2011-10-09, 01:08:04,VALID,1000.84,VALID,0,VALID,88.8088,VALID,0,VALID,22.5484,VALID,24,VALID,0.662109,
2011-10-09, 01:09:04,VALID,1000.8,VALID,0,VALID,88.7249,VALID,0,VALID,22.5111,VALID,24,VALID,0.503906,
2011-10-09, 01:10:04,VALID,1000.83,VALID,0,VALID,89.1063,VALID,0,VALID,22.4331,VALID,24,VALID,0.469141,
2011-10-09, 01:11:04,VALID,1000.81,VALID,0,VALID,89.3123,VALID,0,VALID,22.3746,VALID,24,VALID,0.543359,
2011-10-09, 01:12:04,VALID,1000.8,VALID,0,VALID,89.732,VALID,0,VALID,22.3746,VALID,24,VALID,0.511328,
2011-10-09, 01:13:04,VALID,1000.78,VALID,0,VALID,89.7701,VALID,0,VALID,22.3356,VALID,24,VALID,1.00469,
2011-10-09, 01:14:04,VALID,1000.8,VALID,0,VALID,89.7396,VALID,0,VALID,22.2966,VALID,24,VALID,0.976172,
2011-10-09, 01:15:04,VALID,1000.78,VALID,0,VALID,89.9227,VALID,0,VALID,22.2771,VALID,24,VALID,0.733203,
2011-10-09, 01:16:04,VALID,1000.77,VALID,0,VALID,89.7777,VALID,0,VALID,22.2576,VALID,24,VALID,0.788672,
2011-10-09, 01:17:04,VALID,1000.77,VALID,0,VALID,89.938,VALID,0,VALID,22.199,VALID,36,VALID,0.925,
2011-10-09, 01:18:04,VALID,1000.77,VALID,0,VALID,90.2737,VALID,0,VALID,22.2186,VALID,36,VALID,0.829687,
2011-10-09, 01:19:04,VALID,1000.76,VALID,0,VALID,90.3728,VALID,0,VALID,22.2169,VALID,66,VALID,0.904688,
2011-10-09, 01:20:04,VALID,1000.78,VALID,0,VALID,90.2279,VALID,0,VALID,22.1974,VALID,71,VALID,0.891406,
2011-10-09, 01:21:04,VALID,1000.73,VALID,0,VALID,90.5865,VALID,0,VALID,22.2186,VALID,90,VALID,1.03477,
2011-10-09, 01:22:04,VALID,1000.76,VALID,0,VALID,90.8764,VALID,0,VALID,22.199,VALID,93,VALID,0.918359,
2011-10-09, 01:23:04,VALID,1000.75,VALID,0,VALID,91.3571,VALID,0,VALID,22.199,VALID,93,VALID,0.861719,
2011-10-09, 01:24:04,VALID,1000.72,VALID,0,VALID,91.8148,VALID,0,VALID,22.2381,VALID,93,VALID,0.759766,
2011-10-09, 01:25:04,VALID,1000.68,VALID,0,VALID,92.1124,VALID,0,VALID,22.2576,VALID,93,VALID,0.782031,
2011-10-09, 01:26:04,VALID,1000.66,VALID,0,VALID,92.3184,VALID,0,VALID,22.3161,VALID,93,VALID,0.720703,
2011-10-09, 01:27:04,VALID,1000.66,VALID,0,VALID,92.4328,VALID,0,VALID,22.3356,VALID,93,VALID,0.661328,
2011-10-09, 01:28:04,VALID,1000.64,VALID,0,VALID,92.4176,VALID,0,VALID,22.3746,VALID,93,VALID,0.764844,
2011-10-09, 01:29:04,VALID,1000.64,VALID,0,VALID,92.3489,VALID,0,VALID,22.4136,VALID,93,VALID,0.739844,
2011-10-09, 01:30:04,VALID,1000.65,VALID,0,VALID,92.2497,VALID,0,VALID,22.4331,VALID,93,VALID,0.614062,
2011-10-09, 01:31:04,VALID,1000.64,VALID,0,VALID,91.9369,VALID,0,VALID,22.4526,VALID,93,VALID,0.575,
2011-10-09, 01:32:04,VALID,1000.66,VALID,0,VALID,91.6394,VALID,0,VALID,22.4331,VALID,93,VALID,0.425,
2011-10-09, 01:33:04,VALID,1000.63,VALID,0,VALID,91.4181,VALID,0,VALID,22.3941,VALID,93,VALID,0.263281,
2011-10-09, 01:34:04,VALID,1000.64,VALID,0,VALID,91.3494,VALID,0,VALID,22.3746,VALID,93,VALID,0.128906,
2011-10-09, 01:35:04,VALID,1000.62,VALID,0,VALID,91.4181,VALID,0,VALID,22.3356,VALID,93,VALID,0.351953,
2011-10-09, 01:36:04,VALID,1000.62,VALID,0,VALID,91.5936,VALID,0,VALID,22.3551,VALID,93,VALID,0.497656,
2011-10-09, 01:37:04,VALID,1000.57,VALID,0,VALID,91.5783,VALID,0,VALID,22.3161,VALID,93,VALID,0.430078,
2011-10-09, 01:38:04,VALID,1000.6,VALID,0,VALID,91.441,VALID,0,VALID,22.2966,VALID,93,VALID,0.401172,
2011-10-09, 01:39:04,VALID,1000.61,VALID,0,VALID,91.3418,VALID,0,VALID,22.2966,VALID,93,VALID,0.207422,
2011-10-09, 01:40:04,VALID,1000.59,VALID,0,VALID,91.1358,VALID,0,VALID,22.2381,VALID,93,VALID,0,
2011-10-09, 01:41:04,VALID,1000.55,VALID,0,VALID,90.9298,VALID,0,VALID,22.16,VALID,93,VALID,0.00078125,
2011-10-09, 01:42:04,VALID,1000.58,VALID,0,VALID,91.0748,VALID,0,VALID,22.16,VALID,93,VALID,0.282813,
2011-10-09, 01:43:04,VALID,1000.53,VALID,0,VALID,91.3571,VALID,0,VALID,22.1405,VALID,93,VALID,0.329688,
2011-10-09, 01:44:04,VALID,1000.52,VALID,0,VALID,91.5631,VALID,0,VALID,22.1405,VALID,93,VALID,0.458984,
2011-10-09, 01:45:04,VALID,1000.52,VALID,0,VALID,91.4563,VALID,0,VALID,22.1015,VALID,75,VALID,0.746875,
2011-10-09, 01:46:04,VALID,1000.52,VALID,0,VALID,91.4563,VALID,0,VALID,22.0625,VALID,75,VALID,0.717188,
2011-10-09, 01:47:04,VALID,1000.53,VALID,0,VALID,91.647,VALID,0,VALID,22.0625,VALID,75,VALID,0.611719,
2011-10-09, 01:48:04,VALID,1000.53,VALID,0,VALID,91.7538,VALID,0,VALID,22.043,VALID,75,VALID,0.532422,
2011-10-09, 01:49:04,VALID,1000.53,VALID,0,VALID,91.7843,VALID,0,VALID,22.004,VALID,75,VALID,0.458984,
2011-10-09, 01:50:04,VALID,1000.53,VALID,0,VALID,91.6851,VALID,0,VALID,21.965,VALID,75,VALID,0.49375,
2011-10-09, 01:51:04,VALID,1000.54,VALID,0,VALID,91.6928,VALID,0,VALID,21.9065,VALID,75,VALID,0.333594,
2011-10-09, 01:52:04,VALID,1000.53,VALID,0,VALID,91.8911,VALID,0,VALID,21.9065,VALID,75,VALID,0.157422,
2011-10-09, 01:53:04,VALID,1000.49,VALID,0,VALID,92.12,VALID,0,VALID,21.9455,VALID,75,VALID,0.154297,
2011-10-09, 01:54:04,VALID,1000.52,VALID,0,VALID,92.3108,VALID,0,VALID,21.965,VALID,75,VALID,0,
2011-10-09, 01:55:04,VALID,1000.48,VALID,0,VALID,92.3489,VALID,0,VALID,21.9455,VALID,75,VALID,0,
2011-10-09, 01:56:04,VALID,1000.48,VALID,0,VALID,92.3947,VALID,0,VALID,21.9048,VALID,75,VALID,0,
2011-10-09, 01:57:04,VALID,1000.48,VALID,0,VALID,92.4786,VALID,0,VALID,21.9455,VALID,75,VALID,0,
2011-10-09, 01:58:04,VALID,1000.48,VALID,0,VALID,92.5549,VALID,0,VALID,21.9243,VALID,75,VALID,0,
2011-10-09, 01:59:04,VALID,1000.48,VALID,0,VALID,92.6236,VALID,0,VALID,21.9455,VALID,75,VALID,0,
2011-10-09, 02:00:04,VALID,1000.48,VALID,0,VALID,92.6617,VALID,0,VALID,21.9455,VALID,75,VALID,0,
2011-10-09, 02:01:04,VALID,1000.48,VALID,0,VALID,92.6846,VALID,0,VALID,21.9243,VALID,75,VALID,0,
2011-10-09, 02:02:04,VALID,1000.5,VALID,0,VALID,92.6999,VALID,0,VALID,21.926,VALID,75,VALID,0,
2011-10-09, 02:03:04,VALID,1000.49,VALID,0,VALID,92.738,VALID,0,VALID,21.9455,VALID,75,VALID,0.266016,
2011-10-09, 02:04:04,VALID,1000.45,VALID,0,VALID,92.7457,VALID,0,VALID,21.965,VALID,75,VALID,0.127344,
2011-10-09, 02:05:04,VALID,1000.46,VALID,0,VALID,92.7304,VALID,0,VALID,22.004,VALID,75,VALID,0,
2011-10-09, 02:06:04,VALID,1000.45,VALID,0,VALID,92.6465,VALID,0,VALID,22.004,VALID,75,VALID,0,
2011-10-09, 02:07:04,VALID,1000.44,VALID,0,VALID,92.5091,VALID,0,VALID,22.004,VALID,75,VALID,0,
2011-10-09, 02:08:04,VALID,1000.43,VALID,0,VALID,92.41,VALID,0,VALID,22.004,VALID,75,VALID,0.0117188,
2011-10-09, 02:09:04,VALID,1000.43,VALID,0,VALID,92.3566,VALID,0,VALID,22.0235,VALID,75,VALID,0.31875,
2011-10-09, 02:10:04,VALID,1000.44,VALID,0,VALID,92.2803,VALID,0,VALID,22.0235,VALID,75,VALID,0.655078,
2011-10-09, 02:11:04,VALID,1000.42,VALID,0,VALID,92.1811,VALID,0,VALID,22.004,VALID,75,VALID,0.611719,
2011-10-09, 02:12:04,VALID,1000.41,VALID,0,VALID,92.0743,VALID,0,VALID,21.9455,VALID,75,VALID,0.592578,
2011-10-09, 02:13:04,VALID,1000.41,VALID,0,VALID,92.0437,VALID,0.104696,VALID,21.926,VALID,75,VALID,0.480078,
2011-10-09, 02:14:04,VALID,1000.39,VALID,0,VALID,92.0743,VALID,0,VALID,21.887,VALID,75,VALID,0.421484,
2011-10-09, 02:15:04,VALID,1000.42,VALID,0,VALID,92.1963,VALID,0.104696,VALID,21.8675,VALID,75,VALID,0.339453,
2011-10-09, 02:16:04,VALID,1000.41,VALID,0,VALID,92.1429,VALID,0,VALID,21.8496,VALID,75,VALID,0.357812,
2011-10-09, 02:17:04,VALID,1000.45,VALID,0,VALID,92.2268,VALID,0,VALID,21.809,VALID,75,VALID,0.492969,
2011-10-09, 02:18:04,VALID,1000.42,VALID,0,VALID,92.3108,VALID,0,VALID,21.77,VALID,75,VALID,0.596094,
2011-10-09, 02:19:04,VALID,1000.44,VALID,0,VALID,92.4786,VALID,0,VALID,21.77,VALID,75,VALID,0.566797,
2011-10-09, 02:20:04,VALID,1000.43,VALID,0,VALID,92.5244,VALID,0,VALID,21.7505,VALID,75,VALID,0.85,
2011-10-09, 02:21:04,VALID,1000.42,VALID,0,VALID,92.6007,VALID,0,VALID,21.7505,VALID,75,VALID,0.739062,
2011-10-09, 02:22:04,VALID,1000.4,VALID,0,VALID,92.6846,VALID,0,VALID,21.7911,VALID,75,VALID,0.722266,
2011-10-09, 02:23:04,VALID,1000.43,VALID,0,VALID,92.532,VALID,0,VALID,21.8106,VALID,75,VALID,0.94375,
2011-10-09, 02:24:04,VALID,1000.45,VALID,0,VALID,92.5091,VALID,0,VALID,21.9277,VALID,75,VALID,0.793359,
2011-10-09, 02:25:04,VALID,1000.43,VALID,0,VALID,92.1811,VALID,0,VALID,21.9667,VALID,75,VALID,0.414453,
2011-10-09, 02:26:04,VALID,1000.43,VALID,0,VALID,91.7462,VALID,0,VALID,21.9667,VALID,75,VALID,0.412891,
2011-10-09, 02:27:04,VALID,1000.42,VALID,0,VALID,91.4257,VALID,0,VALID,21.9667,VALID,75,VALID,0.321094,
2011-10-09, 02:28:04,VALID,1000.37,VALID,0,VALID,91.3571,VALID,0,VALID,21.9455,VALID,75,VALID,0.383594,
2011-10-09, 02:29:04,VALID,1000.38,VALID,0,VALID,91.3952,VALID,0,VALID,21.9472,VALID,75,VALID,0.482812,
2011-10-09, 02:30:04,VALID,1000.38,VALID,0,VALID,91.4639,VALID,0,VALID,21.9472,VALID,75,VALID,0.564062,
2011-10-09, 02:31:04,VALID,1000.35,VALID,0,VALID,91.5783,VALID,0,VALID,21.9472,VALID,75,VALID,0.510938,
2011-10-09, 02:32:04,VALID,1000.35,VALID,0,VALID,91.7691,VALID,0,VALID,21.9862,VALID,75,VALID,0.680859,
2011-10-09, 02:33:04,VALID,1000.36,VALID,0,VALID,91.853,VALID,0,VALID,22.0057,VALID,75,VALID,0.511328,
2011-10-09, 02:34:04,VALID,1000.32,VALID,0,VALID,91.853,VALID,0,VALID,22.0447,VALID,75,VALID,0.486328,
2011-10-09, 02:35:04,VALID,1000.32,VALID,0,VALID,91.708,VALID,0,VALID,22.0642,VALID,75,VALID,0.524609,
2011-10-09, 02:36:04,VALID,1000.32,VALID,0,VALID,91.4791,VALID,0,VALID,22.0642,VALID,75,VALID,0.433203,
2011-10-09, 02:37:04,VALID,1000.3,VALID,0,VALID,91.2121,VALID,0,VALID,22.0837,VALID,75,VALID,0.415625,
2011-10-09, 02:38:04,VALID,1000.34,VALID,0,VALID,90.9527,VALID,0,VALID,22.1032,VALID,75,VALID,0.382813,
2011-10-09, 02:39:04,VALID,1000.34,VALID,0,VALID,90.5941,VALID,0,VALID,22.1032,VALID,75,VALID,0.219922,
2011-10-09, 02:40:04,VALID,1000.34,VALID,0,VALID,90.2508,VALID,0,VALID,22.0642,VALID,75,VALID,0.187109,
2011-10-09, 02:41:04,VALID,1000.35,VALID,0,VALID,90.0906,VALID,0,VALID,22.0447,VALID,75,VALID,0.0261719,
2011-10-09, 02:42:04,VALID,1000.33,VALID,0,VALID,90.144,VALID,0,VALID,22.0447,VALID,75,VALID,0.0738281,
2011-10-09, 02:43:04,VALID,1000.36,VALID,0,VALID,90.2813,VALID,0,VALID,22.0252,VALID,75,VALID,0.0539063,
2011-10-09, 02:44:04,VALID,1000.33,VALID,0,VALID,90.2813,VALID,0,VALID,22.0252,VALID,75,VALID,0.0789063,
2011-10-09, 02:45:04,VALID,1000.37,VALID,0,VALID,90.2203,VALID,0,VALID,22.0252,VALID,75,VALID,0.216016,
2011-10-09, 02:46:04,VALID,1000.37,VALID,0,VALID,90.0829,VALID,0,VALID,22.0447,VALID,75,VALID,0.523438,
2011-10-09, 02:47:04,VALID,1000.39,VALID,0,VALID,89.9609,VALID,0,VALID,22.1032,VALID,75,VALID,0.304688,
2011-10-09, 02:48:04,VALID,1000.39,VALID,0,VALID,89.8311,VALID,0,VALID,22.1422,VALID,75,VALID,0.617188,
2011-10-09, 02:49:04,VALID,1000.37,VALID,0,VALID,89.6862,VALID,0,VALID,22.1812,VALID,75,VALID,0.504687,
2011-10-09, 02:50:04,VALID,1000.4,VALID,0,VALID,89.4802,VALID,0,VALID,22.2007,VALID,75,VALID,0.527734,
2011-10-09, 02:51:04,VALID,1000.4,VALID,0,VALID,89.587,VALID,0,VALID,22.2202,VALID,75,VALID,0.874219,
2011-10-09, 02:52:04,VALID,1000.42,VALID,0,VALID,89.7777,VALID,0,VALID,22.2381,VALID,75,VALID,1.01484,
2011-10-09, 02:53:04,VALID,1000.43,VALID,0,VALID,89.8311,VALID,0,VALID,22.2771,VALID,75,VALID,0.732813,
2011-10-09, 02:54:04,VALID,1000.44,VALID,0,VALID,89.8693,VALID,0,VALID,22.2966,VALID,75,VALID,0.621875,
2011-10-09, 02:55:04,VALID,1000.42,VALID,0,VALID,89.4115,VALID,0,VALID,22.2186,VALID,75,VALID,0.644922,
2011-10-09, 02:56:04,VALID,1000.45,VALID,0,VALID,89.7472,VALID,0,VALID,22.16,VALID,75,VALID,0.726563,
2011-10-09, 02:57:04,VALID,1000.44,VALID,0,VALID,89.9761,VALID,0,VALID,22.121,VALID,75,VALID,0.703516,
2011-10-09, 02:58:04,VALID,1000.45,VALID,0,VALID,90.1821,VALID,0,VALID,22.0625,VALID,75,VALID,0.714453,
2011-10-09, 02:59:04,VALID,1000.39,VALID,0,VALID,90.3423,VALID,0,VALID,22.043,VALID,75,VALID,0.642578,
2011-10-09, 03:00:04,VALID,1000.42,VALID,0,VALID,90.2737,VALID,0,VALID,22.0252,VALID,75,VALID,0.491797,
2011-10-09, 03:01:04,VALID,1000.43,VALID,0,VALID,90.5254,VALID,0,VALID,21.9845,VALID,75,VALID,0.536719,
2011-10-09, 03:02:04,VALID,1000.41,VALID,0,VALID,90.6323,VALID,0,VALID,21.926,VALID,75,VALID,0.301172,
2011-10-09, 03:03:04,VALID,1000.4,VALID,0,VALID,90.5712,VALID,0,VALID,21.887,VALID,75,VALID,0.278516,
2011-10-09, 03:04:04,VALID,1000.41,VALID,0,VALID,90.5636,VALID,0,VALID,21.8285,VALID,75,VALID,0.0351563,
2011-10-09, 03:05:04,VALID,1000.38,VALID,0,VALID,90.6628,VALID,0,VALID,21.77,VALID,75,VALID,0.153516,
2011-10-09, 03:06:04,VALID,1000.37,VALID,0,VALID,90.9374,VALID,0,VALID,21.731,VALID,75,VALID,0.326953,
2011-10-09, 03:07:04,VALID,1000.38,VALID,0,VALID,91.1053,VALID,0,VALID,21.7131,VALID,75,VALID,0.487109,
2011-10-09, 03:08:04,VALID,1000.37,VALID,0,VALID,91.3266,VALID,0,VALID,21.6725,VALID,75,VALID,0.575391,
2011-10-09, 03:09:04,VALID,1000.38,VALID,0,VALID,91.4944,VALID,0,VALID,21.6725,VALID,75,VALID,0.495313,
2011-10-09, 03:10:04,VALID,1000.38,VALID,0,VALID,91.5936,VALID,0,VALID,21.614,VALID,75,VALID,0.673437,
2011-10-09, 03:11:04,VALID,1000.4,VALID,0,VALID,91.8988,VALID,0,VALID,21.6725,VALID,108,VALID,0.965234,
2011-10-09, 03:12:05,VALID,1000.4,VALID,0,VALID,92.0819,VALID,0,VALID,21.7505,VALID,108,VALID,1.00234,
2011-10-09, 03:13:05,VALID,1000.41,VALID,0,VALID,92.1124,VALID,0,VALID,21.809,VALID,108,VALID,0.959375,
2011-10-09, 03:14:05,VALID,1000.43,VALID,0,VALID,91.9903,VALID,0,VALID,21.8675,VALID,108,VALID,0.801562,
2011-10-09, 03:15:05,VALID,1000.44,VALID,0,VALID,91.8148,VALID,0,VALID,21.887,VALID,108,VALID,0.532031,
2011-10-09, 03:16:05,VALID,1000.46,VALID,0,VALID,91.6851,VALID,0.104696,VALID,21.926,VALID,108,VALID,0.424219,
2011-10-09, 03:17:05,VALID,1000.47,VALID,0,VALID,91.5402,VALID,0,VALID,21.9065,VALID,108,VALID,0.317578,
2011-10-09, 03:18:05,VALID,1000.48,VALID,0,VALID,91.0671,VALID,0,VALID,21.848,VALID,108,VALID,0.478125,
2011-10-09, 03:19:05,VALID,1000.49,VALID,0,VALID,91.0671,VALID,0,VALID,21.809,VALID,108,VALID,0.455859,
2011-10-09, 03:20:05,VALID,1000.51,VALID,0,VALID,91.6241,VALID,0,VALID,21.848,VALID,107,VALID,0.510938,
2011-10-09, 03:21:05,VALID,1000.51,VALID,0,VALID,91.8225,VALID,0,VALID,21.848,VALID,97,VALID,0.598047,
2011-10-09, 03:22:05,VALID,1000.52,VALID,0,VALID,91.8454,VALID,0.104696,VALID,21.8463,VALID,97,VALID,0.754687,
2011-10-09, 03:23:05,VALID,1000.5,VALID,0,VALID,91.8606,VALID,0.104696,VALID,21.8463,VALID,97,VALID,0.496875,
2011-10-09, 03:24:05,VALID,1000.51,VALID,0,VALID,91.8835,VALID,0.209392,VALID,21.8853,VALID,97,VALID,0.309375,
2011-10-09, 03:25:05,VALID,1000.49,VALID,0,VALID,91.9369,VALID,0.104696,VALID,21.8853,VALID,97,VALID,0.283203,
2011-10-09, 03:26:05,VALID,1000.51,VALID,0,VALID,91.8988,VALID,0.104696,VALID,21.8853,VALID,97,VALID,0.00117188,
2011-10-09, 03:27:05,VALID,1000.51,VALID,0,VALID,91.8225,VALID,0.104696,VALID,21.8853,VALID,97,VALID,0,
2011-10-09, 03:28:05,VALID,1000.54,VALID,0,VALID,91.7462,VALID,0.104696,VALID,21.8463,VALID,97,VALID,0,
2011-10-09, 03:29:05,VALID,1000.53,VALID,0,VALID,91.6928,VALID,0.104696,VALID,21.848,VALID,97,VALID,0.05625,
2011-10-09, 03:30:05,VALID,1000.53,VALID,0,VALID,91.7157,VALID,0.104696,VALID,21.8285,VALID,97,VALID,0.108594,
2011-10-09, 03:31:05,VALID,1000.56,VALID,0,VALID,91.7157,VALID,0.104696,VALID,21.7878,VALID,97,VALID,0.0839844,
2011-10-09, 03:32:05,VALID,1000.57,VALID,0,VALID,91.7843,VALID,0,VALID,21.77,VALID,97,VALID,0,
2011-10-09, 03:33:05,VALID,1000.6,VALID,0,VALID,91.8072,VALID,0.104696,VALID,21.7488,VALID,97,VALID,0,
2011-10-09, 03:34:05,VALID,1000.55,VALID,0,VALID,91.8988,VALID,0,VALID,21.7505,VALID,97,VALID,0,
2011-10-09, 03:35:05,VALID,1000.58,VALID,0,VALID,92.0361,VALID,0.104696,VALID,21.7895,VALID,97,VALID,0.259375,
2011-10-09, 03:36:05,VALID,1000.57,VALID,0,VALID,92.1048,VALID,0.104696,VALID,21.8073,VALID,97,VALID,0.466406,
2011-10-09, 03:37:05,VALID,1000.62,VALID,0,VALID,92.0971,VALID,0,VALID,21.809,VALID,97,VALID,0.529688,
2011-10-09, 03:38:05,VALID,1000.63,VALID,0,VALID,92.0361,VALID,0,VALID,21.809,VALID,97,VALID,0.476172,
2011-10-09, 03:39:05,VALID,1000.65,VALID,0,VALID,91.9751,VALID,0,VALID,21.809,VALID,97,VALID,0.49375,
2011-10-09, 03:40:05,VALID,1000.63,VALID,0,VALID,91.8683,VALID,0,VALID,21.7895,VALID,97,VALID,0.539453,
2011-10-09, 03:41:05,VALID,1000.63,VALID,0,VALID,91.6623,VALID,0,VALID,21.7895,VALID,97,VALID,0.476953,
2011-10-09, 03:42:05,VALID,1000.64,VALID,0,VALID,91.3876,VALID,0,VALID,21.7505,VALID,97,VALID,0.525,
2011-10-09, 03:43:05,VALID,1000.68,VALID,0,VALID,91.235,VALID,0,VALID,21.7521,VALID,97,VALID,0.503125,
2011-10-09, 03:44:05,VALID,1000.69,VALID,0,VALID,91.235,VALID,0,VALID,21.692,VALID,97,VALID,0.554297,
2011-10-09, 03:45:05,VALID,1000.68,VALID,0,VALID,91.2808,VALID,0,VALID,21.6335,VALID,97,VALID,0.446094,
2011-10-09, 03:46:05,VALID,1000.69,VALID,0,VALID,91.5554,VALID,0,VALID,21.6335,VALID,97,VALID,0.209375,
2011-10-09, 03:47:05,VALID,1000.68,VALID,0,VALID,91.7462,VALID,0,VALID,21.6351,VALID,97,VALID,0.0179687,